Regional Weather Roundup
Issued by NWS

Home | Current Version | Previous Version | Text Only | Print | Product List | Glossary Off
Versions: 1 2 3 4 5 6 7 8 9 10 11 12 13 14 15 16 17 18 19 20 21 22 23 24 25 26 27 28 29 30 31 32 33 34 35 36 37 38 39 40 41 42 43 44 45 46 47 48 49 50

000
ASUS45 KPSR 291710
RWRAZ

ARIZONA REGIONAL HOURLY WEATHER ROUNDUP
NATIONAL WEATHER SERVICE PHOENIX AZ
1000 AM MST MON SEP 29 2014

NOTE: FAIR INDICATES FEW OR NO CLOUDS BELOW 12,000 FEET WITH NO
SIGNIFICANT WEATHER AND/OR OBSTRUCTIONS TO VISIBILITY.

AZZ001>003-036-291800-
NORTHWEST ARIZONA

CITY           SKY/WX    TMP DP  RH WIND       PRES   REMARKS
BULLHEAD CITY  SUNNY     77  41  27 CALM      29.92R
KINGMAN        NOT AVBL
$$

AZZ004>008-015-016-018-291800-
NORTH CENTRAL ARIZONA

CITY           SKY/WX    TMP DP  RH WIND       PRES   REMARKS
GRAND CANYON   MOSUNNY   55  34  45 VRB6G16   30.13R
PRESCOTT       SUNNY     64  29  26 CALM      30.08R
FLAGSTAFF      SUNNY     54  28  36 SW14G21   30.13F
PAYSON         SUNNY     66  41  39 SW6       30.10S
$$

AZZ009>014-017-291800-
NORTHEAST ARIZONA

CITY           SKY/WX    TMP DP  RH WIND       PRES   REMARKS
WINSLOW        MOSUNNY   65  39  38 SW8       30.06S
SAINT JOHNS    MOSUNNY   65  48  54 W16G23    30.07S
SHOW LOW       MOSUNNY   59  39  47 SW22G31   30.14F
$$

AZZ023-291800-
GREATER PHOENIX AREA

CITY           SKY/WX    TMP DP  RH WIND       PRES   REMARKS
PHOENIX        MOSUNNY   77  54  44 NE8       29.89R
BUCKEYE          N/A     72  55  56 CALM      29.91S
GLENDALE       SUNNY     75  54  46 CALM      29.92R
LUKE AFB       SUNNY     76  52  43 VRB3      29.90S HAZE
DEER VALLEY    SUNNY     77  47  34 CALM      29.91R
SCOTTSDALE     SUNNY     76  53  44 SW3       29.92R
MESA-FALCON    MOSUNNY   77  54  44 NE8       29.90S
MESA-GATEWAY   SUNNY     75  55  50 E6        29.92F
CHANDLER       MOSUNNY   77  59  53 E5        29.91S
$$

AZZ027-028-291800-
SOUTHWEST MARICOPA COUNTY AND PINAL COUNTY

CITY           SKY/WX    TMP DP  RH WIND       PRES   REMARKS
CASA GRANDE    SUNNY     75  52  43 CALM      29.92F
GILA BEND      SUNNY     77  52  41 VRB2      29.91R
$$

AZZ503-504-507>509-291800-
SOUTHEAST ARIZONA

CITY           SKY/WX    TMP DP  RH WIND       PRES   REMARKS
TUCSON         SUNNY     79  61  53 CALM      29.96F
DAVIS-MONTHAN  SUNNY     79  61  54 W7        29.94F
RYAN FIELD       N/A     81  57  44 W6        29.96F
NOGALES        MOSUNNY   77  60  55 S12       30.02F
SIERRA VISTA   MOSUNNY   77  55  47 S13       30.07F
DOUGLAS        MOSUNNY   77  59  53 W7        30.05S
SAFFORD        SUNNY     80  59  48 NE7       29.94F
$$

AZZ020-021-025-026-031-291800-
SOUTHWEST ARIZONA

CITY           SKY/WX    TMP DP  RH WIND       PRES   REMARKS
YUMA           SUNNY     81  48  31 CALM      29.87R
$$

CAZ031-033-041-043-047-048-061-291800-
SOUTHERN CALIFORNIA

CITY           SKY/WX    TMP DP  RH WIND       PRES   REMARKS
DOWNTOWN L.A.  SUNNY     72  58  61 W5        29.93S
L.A. AIRPORT   MOSUNNY   69  57  65 W3        29.94F
SAN DIEGO      MOSUNNY   71  55  56 VRB5      29.94F
BURBANK        SUNNY     68  53  58 E3        29.94S
ONTARIO        SUNNY     67  57  70 SW3       29.94F
RIVERSIDE      SUNNY     68  57  68 W5        29.94F
PALM SPRINGS   SUNNY     79  48  33 CALM      29.91S
EL CENTRO NAS  SUNNY     81  45  28 NW7       29.87S
IMPERIAL       SUNNY     80  51  36 NW8       29.87R
BLYTHE         SUNNY     81  45  28 N16       29.89R
NEEDLES        SUNNY     78  40  25 VRB3      29.91S
$$

NVZ020-UTZ003-291800-
SOUTHERN NEVADA-UTAH

CITY           SKY/WX    TMP DP  RH WIND       PRES   REMARKS
LAS VEGAS      SUNNY     72  41  32 S6        29.93S
SALT LAKE CITY MOSUNNY   61  48  63 SE10      29.99S
$$

NMZ009-TXZ055-291800-
NEW MEXICO-WEST TEXAS

CITY           SKY/WX    TMP DP  RH WIND       PRES   REMARKS
ALBUQUERQUE    MOSUNNY   71  52  50 S15       30.07F
EL PASO        MOSUNNY   77  58  51 SE12      30.04F
$$


........................KEY........................
SKY/WX - SKY CONDITION/WEATHER
TMP    - TEMPERATURE IN FAHRENHEIT
DP     - DEW POINT IN FAHRENHEIT
RH     - RELATIVE HUMIDITY IN PERCENT
WIND   - DIRECTION AND SPEED IN MILES PER HOUR (MPH)
VRB    - VARIABLE WIND DIRECTION
PRES   - MEAN SEA LEVEL PRESSURE IN INCHES OF MERCURY
         F - FALLING PRESSURE   R - RISING PRESSURE
         S - STEADY PRESSURE
VSB    - VISIBILITY IN MILES
HX     - HEAT INDEX IN FAHRENHEIT
WCI    - WIND CHILL INDEX IN FAHRENHEIT
TC     - TEMPERATURE IN CELSIUS WHICH IS ALSO KNOWN AS
         TEMPERATURE IN CENTIGRADE
AFB    - AIR FORCE BASE
         LUKE AFB IS LUKE AIR FORCE BASE
         DAVIS-MONTHAN IS DAVIS-MONTHAN AIR FORCE BASE
NAS    - NAVAL AIR STATION
         EL CENTRO NAS IS EL CENTRO NAVAL AIR STATION
N/A    - NOT AVAILABLE



USA.gov is the U.S. government's official web portal to all federal, state and local government web resources and services.